Previsão horária em Aavasaksa

Hoje, 1 Novembro, Domingo

Tempo Temperatura Precipitação Vento Pressão Humidade
00:00 +2°C° 0 mm 2 m/s 756 mmHg 98%
01:00 +2°C° 0 mm 2 m/s 756 mmHg 98%
02:00 +3°C° 0 mm 1 m/s 756 mmHg 98%
03:00 +2°C° 0 mm 2 m/s 756 mmHg 98%
04:00 +2°C° 0 mm 2 m/s 755 mmHg 98%
05:00 +3°C° 0 mm 2 m/s 755 mmHg 98%
06:00 +3°C° 0.2 mm 2 m/s 755 mmHg 98%
07:00 +3°C° 0.2 mm 2 m/s 754 mmHg 98%
08:00 +4°C° 0.2 mm 2 m/s 754 mmHg 98%
09:00 +3°C° 0.1 mm 3 m/s 754 mmHg 98%
10:00 +4°C° 0.1 mm 3 m/s 753 mmHg 97%
11:00 +4°C° 0.1 mm 4 m/s 753 mmHg 97%
12:00 +5°C° 0.1 mm 4 m/s 753 mmHg 96%
13:00 +5°C° 0.1 mm 4 m/s 752 mmHg 96%
14:00 +5°C° 0.1 mm 3 m/s 752 mmHg 96%
15:00 +5°C° 0.1 mm 4 m/s 752 mmHg 95%
16:00 +5°C° 0.1 mm 5 m/s 752 mmHg 94%
17:00 +6°C° 0.1 mm 5 m/s 751 mmHg 94%
18:00 +5°C° 0.2 mm 5 m/s 751 mmHg 93%
19:00 +5°C° 0.2 mm 5 m/s 751 mmHg 93%
20:00 +4°C° 0.2 mm 6 m/s 750 mmHg 93%
21:00 +4°C° 0.1 mm 6 m/s 750 mmHg 91%
22:00 +5°C° 0.1 mm 5 m/s 750 mmHg 90%
23:00 +5°C° 0.1 mm 5 m/s 749 mmHg 88%

Amanhã, 2 Novembro, Segunda-feira

Tempo Temperatura Precipitação Vento Pressão Humidade
00:00 +5°C° 0 mm 5 m/s 749 mmHg 88%
01:00 +5°C° 0 mm 5 m/s 749 mmHg 87%
02:00 +5°C° 0 mm 5 m/s 748 mmHg 87%
03:00 +4°C° 0.3 mm 6 m/s 747 mmHg 88%
04:00 +4°C° 0.3 mm 6 m/s 746 mmHg 89%
05:00 +4°C° 0.3 mm 6 m/s 746 mmHg 90%
06:00 +4°C° 0.7 mm 6 m/s 745 mmHg 90%
07:00 +4°C° 0.7 mm 6 m/s 745 mmHg 90%
08:00 +4°C° 0.7 mm 6 m/s 744 mmHg 90%
09:00 +4°C° 1.3 mm 6 m/s 744 mmHg 90%
10:00 +4°C° 1.3 mm 7 m/s 743 mmHg 90%
11:00 +4°C° 1.3 mm 7 m/s 743 mmHg 91%
12:00 +4°C° 1.5 mm 7 m/s 742 mmHg 91%
13:00 +4°C° 1.5 mm 7 m/s 742 mmHg 90%
14:00 +4°C° 1.5 mm 7 m/s 741 mmHg 90%
15:00 +4°C° 2.2 mm 7 m/s 740 mmHg 91%
16:00 +4°C° 2.2 mm 7 m/s 740 mmHg 91%
17:00 +4°C° 2.2 mm 7 m/s 739 mmHg 91%
18:00 +4°C° 1.4 mm 7 m/s 739 mmHg 92%
19:00 +5°C° 1.4 mm 7 m/s 738 mmHg 92%
20:00 +5°C° 1.4 mm 6 m/s 738 mmHg 92%
21:00 +5°C° 1 mm 6 m/s 737 mmHg 92%
22:00 +5°C° 1 mm 6 m/s 736 mmHg 93%
23:00 +5°C° 1 mm 6 m/s 735 mmHg 93%

Depois de amanhã, 3 Novembro, Terça-feira

Tempo Temperatura Precipitação Vento Pressão Humidade
00:00 +5°C° 2.3 mm 6 m/s 734 mmHg 93%
01:00 +5°C° 2.3 mm 6 m/s 733 mmHg 94%
02:00 +6°C° 2.3 mm 7 m/s 731 mmHg 94%
03:00 +8°C° 4.4 mm 7 m/s 730 mmHg 94%
04:00 +9°C° 4.4 mm 7 m/s 728 mmHg 94%
05:00 +10°C° 4.4 mm 7 m/s 727 mmHg 93%
06:00 +9°C° 0.6 mm 7 m/s 726 mmHg 89%
07:00 +9°C° 0.6 mm 8 m/s 726 mmHg 85%
08:00 +7°C° 0.6 mm 8 m/s 725 mmHg 82%
09:00 +7°C° 0.4 mm 8 m/s 725 mmHg 82%
10:00 +8°C° 0.4 mm 7 m/s 725 mmHg 83%
11:00 +6°C° 0.4 mm 7 m/s 725 mmHg 83%
12:00 +7°C° 0.3 mm 6 m/s 725 mmHg 85%
13:00 +7°C° 0.3 mm 6 m/s 725 mmHg 87%
14:00 +7°C° 0.3 mm 5 m/s 726 mmHg 89%
15:00 +7°C° 0.1 mm 4 m/s 726 mmHg 89%
16:00 +7°C° 0.1 mm 4 m/s 727 mmHg 89%
17:00 +7°C° 0.1 mm 4 m/s 727 mmHg 90%
18:00 +6°C° 0.1 mm 4 m/s 729 mmHg 84%
19:00 +6°C° 0.1 mm 4 m/s 730 mmHg 79%
20:00 +6°C° 0.1 mm 4 m/s 731 mmHg 74%
21:00 +6°C° 0 mm 4 m/s 733 mmHg 74%
22:00 +5°C° 0 mm 4 m/s 734 mmHg 74%
23:00 +5°C° 0 mm 4 m/s 736 mmHg 75%

4 Novembro, Quarta-feira

Tempo Temperatura Precipitação Vento Pressão Humidade
00:00 +5°C° 0 mm 4 m/s 737 mmHg 75%
01:00 +4°C° 0 mm 3 m/s 738 mmHg 75%
02:00 +4°C° 0 mm 3 m/s 739 mmHg 75%
03:00 +3°C° 0 mm 3 m/s 740 mmHg 77%
04:00 +4°C° 0 mm 2 m/s 741 mmHg 79%
05:00 +3°C° 0 mm 2 m/s 741 mmHg 81%
06:00 +3°C° 0 mm 2 m/s 742 mmHg 82%
07:00 +3°C° 0 mm 2 m/s 743 mmHg 83%
08:00 +2°C° 0 mm 2 m/s 743 mmHg 85%
09:00 +2°C° 0 mm 2 m/s 744 mmHg 83%
10:00 +3°C° 0 mm 2 m/s 744 mmHg 82%
11:00 +2°C° 0 mm 3 m/s 744 mmHg 81%
12:00 +2°C° 0 mm 3 m/s 745 mmHg 82%
13:00 +2°C° 0 mm 3 m/s 745 mmHg 82%
14:00 +2°C° 0 mm 3 m/s 745 mmHg 83%
15:00 +2°C° 0 mm 3 m/s 745 mmHg 84%
16:00 +1°C° 0 mm 3 m/s 745 mmHg 85%
17:00 +1°C° 0 mm 3 m/s 745 mmHg 85%
18:00 +1°C° 0 mm 3 m/s 745 mmHg 86%
19:00 +1°C° 0 mm 3 m/s 745 mmHg 86%
20:00 +1°C° 0 mm 3 m/s 744 mmHg 87%
21:00 +1°C° 0 mm 3 m/s 744 mmHg 88%
22:00 +1°C° 0 mm 3 m/s 744 mmHg 89%
23:00 0°C° 0 mm 3 m/s 744 mmHg 90%

5 Novembro, Quinta-feira

Tempo Temperatura Precipitação Vento Pressão Humidade
00:00 0°C° 0 mm 3 m/s 744 mmHg 91%
01:00 0°C° 0 mm 3 m/s 744 mmHg 91%
02:00 0°C° 0 mm 3 m/s 744 mmHg 92%
03:00 +1°C° 0 mm 2 m/s 743 mmHg 91%
04:00 +1°C° 0 mm 2 m/s 743 mmHg 90%
05:00 -1°C° 0 mm 2 m/s 743 mmHg 89%
06:00 +1°C° 0 mm 2 m/s 743 mmHg 87%
07:00 0°C° 0 mm 3 m/s 743 mmHg 86%
08:00 0°C° 0 mm 3 m/s 744 mmHg 84%
09:00 +1°C° 0 mm 3 m/s 743 mmHg 81%
10:00 +1°C° 0 mm 4 m/s 743 mmHg 78%
11:00 +3°C° 0 mm 4 m/s 743 mmHg 75%
12:00 +3°C° 0 mm 4 m/s 742 mmHg 76%
13:00 +3°C° 0 mm 4 m/s 742 mmHg 77%
14:00 +3°C° 0 mm 4 m/s 742 mmHg 78%
15:00 +3°C° 0 mm 4 m/s 742 mmHg 78%
16:00 +3°C° 0 mm 4 m/s 743 mmHg 77%
17:00 +3°C° 0 mm 4 m/s 743 mmHg 77%
18:00 +3°C° 0 mm 4 m/s 743 mmHg 77%
19:00 +3°C° 0 mm 4 m/s 743 mmHg 76%
20:00 +3°C° 0 mm 3 m/s 743 mmHg 76%
21:00 +3°C° 0 mm 4 m/s 743 mmHg 77%
22:00 +3°C° 0 mm 4 m/s 743 mmHg 78%
23:00 +4°C° 0 mm 4 m/s 743 mmHg 80%

6 Novembro, Sexta-feira

Tempo Temperatura Precipitação Vento Pressão Humidade
00:00 +4°C° 0 mm 4 m/s 743 mmHg 81%
01:00 +4°C° 0 mm 4 m/s 743 mmHg 81%
02:00 +4°C° 0 mm 4 m/s 743 mmHg 82%
03:00 +5°C° 0 mm 4 m/s 743 mmHg 82%
04:00 +6°C° 0 mm 5 m/s 742 mmHg 81%
05:00 +7°C° 0 mm 5 m/s 742 mmHg 81%
06:00 +7°C° 0 mm 5 m/s 742 mmHg 80%
07:00 +7°C° 0 mm 5 m/s 742 mmHg 80%
08:00 +8°C° 0 mm 6 m/s 742 mmHg 79%
09:00 +8°C° 0 mm 6 m/s 742 mmHg 77%
10:00 +9°C° 0 mm 6 m/s 743 mmHg 75%
11:00 +9°C° 0 mm 6 m/s 743 mmHg 73%
12:00 +9°C° 0 mm 5 m/s 743 mmHg 72%
13:00 +9°C° 0 mm 5 m/s 744 mmHg 71%
14:00 +8°C° 0 mm 5 m/s 745 mmHg 70%
15:00 +7°C° 0 mm 6 m/s 745 mmHg 66%
16:00 +7°C° 0 mm 6 m/s 746 mmHg 63%
17:00 +5°C° 0 mm 7 m/s 747 mmHg 60%
18:00 +4°C° 0 mm 6 m/s 748 mmHg 60%
19:00 +3°C° 0 mm 5 m/s 749 mmHg 61%
20:00 +3°C° 0 mm 5 m/s 750 mmHg 62%
21:00 +3°C° 0 mm 5 m/s 751 mmHg 62%
22:00 +3°C° 0 mm 5 m/s 751 mmHg 63%
23:00 +3°C° 0 mm 6 m/s 751 mmHg 63%
Mostrar mais